Simultaneous Nadir Overpasses (SNOs) Predictions

Prediction of SNOs between GOES-17 and METOP-B Satellite Orbit:

Table of predicted SNOs for the next 14.0 days since TLE Epoch: 12/21/2024
Index Date Time (GOES-17) GOES-17 Lat,Lon METOP-B Lat,Lon Distance(km) Time Diff (sec)
1 12/22/2024 04:18:34 -0.02,-104.66 -0.21,-105.55 101.39 80
2 12/23/2024 03:55:21 -0.02,-104.66 0.88,-100.59 463.85 80
3 12/24/2024 16:14:22 0.02,-104.71 0.13,-105.21 56.81 80
4 12/27/2024 04:15:39 0.01,-104.67 -0.05,-104.90 26.53 80
5 12/29/2024 16:14:07 -0.01,-104.71 -0.07,-104.56 17.19 80
6 01/01/2025 04:10:03 -0.00,-104.66 0.12,-104.25 48.21 80
7 01/02/2025 16:29:03 0.01,-104.69 0.92,-108.86 474.44 80
8 01/03/2025 16:11:08 0.02,-104.69 -0.14,-103.89 91.34 80
